Weather in Molodcheno

Belarus     54°18′26″N   26°50′20″E
temp.,
°C
wind,
m/s
gust,
m/s
humid.,
%
clouds,
%
prec.,
mm/h
press.,
hPa
HPBL,
m
16 june, wed
wed1600:00+15nw3795100 0.0 1015240
03:00+11nw36955 0.0 1017135
06:00+9nnw38965 0.0 1018179
09:00+14nne45775 0.0 1018426
12:00+18nne33585 0.0 10191172
15:00+20nnw345076 0.0 10191485
18:00+20nne345948 0.0 10191447
21:00+15ne22765 0.0 102023
17 june, thu
thu1700:00+11ne22815 0.0 102111
03:00+10nne22855 0.0 102312
06:00+11ne22840 0.0 102327
09:00+16e23700 0.0 1024282
12:00+21e23565 0.0 1024908
15:00+23ese23500 0.0 10241385
18:00+23se23570 0.0 10241298
21:00+18e22735 0.0 102411
18 june, fri
fri1800:00+15ese338459 0.0 102523
03:00+14sse3382100 0.0 102637
06:00+14sse228586 0.0 102641
09:00+19sse35735 0.0 1025349
12:00+23sse45605 0.0 10251125
15:00+24sse45585 0.0 10251338
18:00+24se356511 0.0 10231241
21:00+19se34805 0.0 102356
19 june, sat
sat1900:00+16sse36885 0.0 102486
03:00+14sse37915 0.0 1024101
06:00+15sse36905 0.0 1025108
09:00+20sse57760 0.0 1024429
12:00+23sse55660 0.0 1023949
15:00+24sse55590 0.0 10221263
18:00+25sse35654 0.0 10211240
21:00+20s22808 0.0 102118
20 june, sun
sun2000:00+17se35885 0.0 102171
03:00+16sse38930 0.0 1022149
06:00+16sse38931 0.0 1022178
09:00+20s46805 0.0 1021434
12:00+24sse447023 0.0 10211139
15:00+25sse44615 0.1 10201324
18:00+25sse34650 0.0 10191081
21:00+21sse23856 0.3 101937